Home   Weather   Kallithea   Past weeks

Flag for Greece Past Weather in Kallithea, Greece — Yesterday and Last 2 Weeks

Now
79 °F

Sunny.


Feels Like: 78 °F
Forecast: 57 / 84 °F
Wind: 7 mph from South

Location: Elefsis Airport

Current Time: Sep 30, 2016 at 1:03:42 PM

Latest Report: Sep 30, 2016 at 12:20 PM


Visibility: 10 mi

Pressure: 30.15 "Hg

Humidity: 24%

Dew Point: 39 °F

Location of KallitheaLocation

Past Weather in Kallithea — Graph

°F

Kallithea Temperature Yesterday

Maximum temperature yesterday: 81 °F (at 1:20 PM)
Minimum temperature yesterday: 61 °F (at 12:50 AM)
Average temperature yesterday: 71 °F

High & Low Weather Summary for the Past Weeks

 TemperatureHumidityPressure
High95 °F (Sep 18, 1:50 PM)88% (Sep 22, 1:20 AM)30.33 "Hg (Sep 22, 1:20 AM)
Low57 °F (Sep 30, 5:50 AM)18% (Sep 15, 3:50 PM)29.71 "Hg (Sep 20, 4:20 AM)
Average73 °F48%30.03 "Hg
* Reported Sep 15 11:20 AM — Sep 30 11:50 AM, Kallithea, Weather by CustomWeather, © 2016

Note: Actual official high and low records may vary slightly from our data, if they occured in-between our weather recording intervals... More about our weather records

Advertising

Kallithea Weather History for the Previous 24 Hours

Scroll right to see more
 ConditionsComfort  
Time TempWeatherWind HumidityBarometerVisibility
11:50 AM
Fri, Sep 30
61 °FSunny.6 mph59%30.15 "Hg10 mi
11:20 AM79 °FSunny.5 mph32%30.15 "Hg10 mi
10:50 AM77 °FSunny.5 mph30%30.15 "Hg10 mi
10:20 AM77 °FSunny.5 mph30%30.15 "Hg10 mi
9:50 AM72 °FSunny.No wind41%30.15 "Hg10 mi
9:20 AM70 °FSunny.No wind40%30.15 "Hg10 mi
8:50 AM68 °FSunny.No wind46%30.15 "Hg10 mi
8:20 AM61 °FSunny.No wind59%30.15 "Hg10 mi
7:50 AM57 °FSunny.No wind63%30.12 "Hg10 mi
7:20 AM57 °FSunny.No wind63%30.12 "Hg10 mi
6:50 AM57 °FClear.No wind63%30.12 "Hg10 mi
6:20 AM57 °FClear.No wind63%30.12 "Hg10 mi
5:50 AM57 °FClear.3 mph63%30.15 "Hg10 mi
5:20 AM59 °FClear.No wind59%30.15 "Hg10 mi
4:50 AM59 °FClear.3 mph59%30.12 "Hg10 mi
4:20 AM59 °FClear.3 mph59%30.15 "Hg10 mi
3:50 AM61 °FClear.No wind55%30.15 "Hg10 mi
3:20 AM61 °FClear.3 mph55%30.15 "Hg10 mi
2:50 AM59 °FClear.3 mph59%30.15 "Hg10 mi
2:20 AM63 °FClear.3 mph52%30.15 "Hg10 mi
1:50 AM61 °FClear.3 mph55%30.18 "Hg10 mi
1:20 AM61 °FClear.3 mph55%30.18 "Hg10 mi
12:50 AM63 °FClear.3 mph52%30.18 "Hg10 mi
12:20 AM61 °FClear.3 mph52%30.18 "Hg10 mi
11:50 PM
Thu, Sep 29
63 °FClear.3 mph49%30.18 "Hg10 mi
11:20 PM63 °FClear.3 mph49%30.18 "Hg10 mi
10:50 PM64 °FClear.3 mph49%30.18 "Hg10 mi
10:20 PM64 °FClear.No wind49%30.18 "Hg10 mi
9:50 PM64 °FClear.No wind56%30.18 "Hg10 mi
9:20 PM66 °FClear.No wind52%30.18 "Hg10 mi
8:50 PM68 °FClear.No wind46%30.18 "Hg10 mi
8:20 PM70 °FClear.No wind43%30.15 "Hg10 mi
7:50 PM72 °FClear.No wind50%30.18 "Hg10 mi
7:20 PM73 °FPassing clouds.3 mph44%30.15 "HgN/A
6:50 PM75 °FPassing clouds.5 mph41%30.15 "HgN/A
6:20 PM77 °FSunny.6 mph36%30.15 "Hg10 mi
5:50 PM79 °FSunny.6 mph28%30.15 "Hg10 mi
5:20 PM79 °FSunny.8 mph28%30.15 "Hg10 mi
4:50 PM79 °FSunny.8 mph26%30.18 "Hg10 mi
4:20 PM81 °FSunny.8 mph24%30.18 "Hg10 mi
3:50 PM81 °FSunny.8 mph24%30.18 "Hg10 mi
3:20 PM81 °FSunny.8 mph26%30.18 "Hg10 mi
2:50 PM81 °FSunny.7 mph26%30.18 "Hg10 mi
2:20 PM81 °FSunny.6 mph26%30.21 "Hg10 mi
1:20 PM81 °FSunny.6 mph24%30.24 "Hg10 mi
Weather by CustomWeather, © 2016

See weather overviewHow to use our weather pages